This is the latest recevied weather packets stored in our database for station/object G6UYG-13. If no packets are shown the sender has not sent any weather packets the latest 1 day(s).
| Time | Temp. | Humidity | Pressure | Rain* | Wind** | Luminosity | Snow |
|---|---|---|---|---|---|---|---|
| 1778028572 | 8.33° C | 77% | 1013.3 hPa | 0 mm | - | 0 W/m² | - |
| 1778028152 | 8.33° C | 78% | 1013.3 hPa | 0 mm | - | 0 W/m² | - |
| 1778027732 | 8.33° C | 79% | 1013.4 hPa | 0 mm | - | 0 W/m² | - |
| 1778027312 | 8.33° C | 80% | 1013.4 hPa | 0 mm | - | 0 W/m² | - |
| 1778026892 | 8.89° C | 80% | 1013.3 hPa | 0 mm | - | 0 W/m² | - |
| 1778018913 | 8.89° C | 82% | 1013.1 hPa | 0 mm | - | 0 W/m² | - |
| 1778018493 | 8.89° C | 81% | 1013.1 hPa | 0 mm | - | 0 W/m² | - |
| 1778018073 | 8.89° C | 81% | 1013 hPa | 0 mm | - | 0 W/m² | - |
| 1778017653 | 8.89° C | 81% | 1013.1 hPa | 0 mm | - | 0 W/m² | - |
| 1778017233 | 8.89° C | 80% | 1013 hPa | 0 mm | - | 0 W/m² | - |
| 1778016813 | 8.89° C | 80% | 1013 hPa | 0 mm | - | 0 W/m² | - |
| 1778015973 | 9.44° C | 79% | 1013 hPa | 0 mm | - | 0 W/m² | - |
| 1778015553 | 9.44° C | 79% | 1012.9 hPa | 0 mm | - | 0 W/m² | - |
| 1778014713 | 9.44° C | 78% | 1012.9 hPa | 0 mm | - | 0 W/m² | - |
| 1778014293 | 9.44° C | 77% | 1012.9 hPa | 0 mm | - | 0 W/m² | - |
| 1778010933 | 10.56° C | 74% | 1012.7 hPa | 0 mm | - | 0 W/m² | - |
| 1778008073 | 11.11° C | 72% | 1012.2 hPa | 0 mm | - | 25 W/m² | - |
| 1778001694 | 11.11° C | 75% | 1012.3 hPa | 0 mm | - | 62 W/m² | - |
| 1778001274 | 11.11° C | 75% | 1012.3 hPa | 0 mm | - | 67 W/m² | - |
| 1778000854 | 11.11° C | 74% | 1012.3 hPa | 0 mm | - | 72 W/m² | - |
| 1778000434 | 11.11° C | 74% | 1012.4 hPa | 0 mm | - | 77 W/m² | - |
| 1778000014 | 11.11° C | 74% | 1012.4 hPa | 0 mm | - | 88 W/m² | - |
| 1777999594 | 11.11° C | 74% | 1012.4 hPa | 0 mm | - | 93 W/m² | - |
| 1777999174 | 11.11° C | 73% | 1012.4 hPa | 0 mm | - | 77 W/m² | - |
| 1777998824 | 11.67° C | 73% | 1012.4 hPa | 0 mm | - | 70 W/m² | - |
* Rain latest hour (hover to see other rain measurements)
** Current wind speed in m/s (hover to see current wind gust speed)